Weather History for KJBR - December, 2012

Change the Weather History Date:

Saturday, December 15, 2012

  Actual Average Record
Temperature  
Mean Temperature 56 °F 39 °F  
Max Temperature 63 °F 48 °F 75 °F (1984)
Min Temperature 48 °F 31 °F -2 °F (1914)
Degree Days  
Heating Degree Days 9 26  
Month to date heating degree days 187 361  
Since 1 July heating degree days 870 1011  
Cooling Degree Days 0 0  
Month to date cooling degree days 2 0  
Year to date cooling degree days 2345 1827  
Growing Degree Days 5 (Base 50)    
Moisture  
Dew Point 54 °F    
Average Humidity 88    
Maximum Humidity 93    
Minimum Humidity 83    
Precipitation  
Precipitation 0.11 in 0.13 in 2.15 in (1902)
Month to date precipitation 2.05 2.52  
Year to date precipitation 31.93 45.85  
Snow  
Snow 0.00 in 0.00 in 3.60 in (1930)
Month to date snowfall T 0.1  
Since 1 July snowfall T 0.1  
Snow Depth 0.00 in    
Sea Level Pressure  
Sea Level Pressure 29.84 in    
Wind  
Wind Speed 14 mph (South)    
Max Wind Speed 26 mph    
Max Gust Speed 35 mph    
Visibility 10 miles    
Events Rain    
T = Trace of Precipitation, MM = Missing Value Source: NWS Daily Summary

Daily Weather History Graph

Daily Weather History Graph

Search for Another Location

Airport or City:

Trip Planner

Search our weather history database for the weather conditions in past years. The results will help you decide how hot, cold, wet, or windy it might be!

Date:

Astronomy

Dec. 15, 2012 Rise Set
Actual Time 7:05 AM CST 4:50 PM CST
Civil Twilight 6:37 AM CST 5:18 PM CST
Nautical Twilight 6:05 AM CST 5:50 PM CST
Astronomical Twilight 5:34 AM CST 6:22 PM CST
Moon 9:02 AM CST (12/15) 7:50 PM CST (12/15)
Length of Visible Light 10h 41m
Length of Day
9h 44m
Waxing Crescent, 8% of the Moon is Illuminated
Dec 15
Waxing Crescent
Dec 19
First Quarter
Dec 28
Full
Jan 4
Last Quarter
Jan 11
New

Hourly Weather History & Observations

Time (CST) Temp. Dew Point Humidity Pressure Visibility Wind Dir Wind Speed Gust Speed Precip Events Conditions
12:53 AM 48.0 °F 45.0 °F 89% 30.01 in 10.0 mi South 9.2 mph - 0.04 in Rain Light Rain
1:53 AM 48.9 °F 46.0 °F 90% 29.99 in 10.0 mi SSE 10.4 mph - 0.00 in   Overcast
2:53 AM 50.0 °F 46.0 °F 86% 29.96 in 10.0 mi SSE 16.1 mph - 0.00 in Rain Light Rain
3:53 AM 51.1 °F 46.0 °F 83% 29.92 in 10.0 mi SSE 17.3 mph - 0.00 in   Overcast
4:53 AM 51.1 °F 46.9 °F 86% 29.90 in 10.0 mi SSE 17.3 mph - 0.01 in   Overcast
5:53 AM 52.0 °F 46.9 °F 83% 29.88 in 10.0 mi South 17.3 mph - 0.00 in   Overcast
6:09 AM 51.8 °F 48.2 °F 88% 29.90 in 8.0 mi South 11.5 mph - 0.04 in Rain Light Rain
6:53 AM 52.0 °F 48.9 °F 89% 29.90 in 10.0 mi South 15.0 mph 23.0 mph 0.06 in Rain Light Rain
7:53 AM 53.1 °F 48.9 °F 86% 29.89 in 10.0 mi South 16.1 mph 24.2 mph 0.00 in   Overcast
8:45 AM 53.6 °F 50.0 °F 88% 29.89 in 10.0 mi South 17.3 mph 23.0 mph N/A   Overcast
8:53 AM 53.1 °F 50.0 °F 89% 29.89 in 10.0 mi South 13.8 mph 23.0 mph N/A   Overcast
9:53 AM 54.0 °F 51.1 °F 90% 29.87 in 10.0 mi South 15.0 mph - N/A   Overcast
10:53 AM 55.9 °F 53.1 °F 90% 29.86 in 3.0 mi South 13.8 mph - N/A   Overcast
11:03 AM 55.4 °F 53.6 °F 94% 29.86 in 4.0 mi South 12.7 mph 21.9 mph N/A   Overcast
11:53 AM 57.9 °F 54.0 °F 87% 29.83 in 10.0 mi SSW 21.9 mph 31.1 mph N/A   Overcast
12:53 PM 59.0 °F 55.0 °F 87% 29.80 in 10.0 mi SSW 20.7 mph 28.8 mph N/A   Overcast
1:53 PM 59.0 °F 55.0 °F 87% 29.79 in 10.0 mi SSW 18.4 mph 26.5 mph N/A   Overcast
2:53 PM 59.0 °F 55.9 °F 90% 29.78 in 10.0 mi SSW 15.0 mph 24.2 mph N/A   Overcast
3:53 PM 60.1 °F 57.0 °F 90% 29.77 in 10.0 mi SSW 18.4 mph 25.3 mph N/A   Mostly Cloudy
4:01 PM 60.8 °F 57.2 °F 88% 29.78 in 10.0 mi SSW 17.3 mph 25.3 mph N/A   Scattered Clouds
4:42 PM 60.8 °F 57.2 °F 88% 29.78 in 10.0 mi SSW 12.7 mph - N/A   Mostly Cloudy
4:53 PM 60.1 °F 57.0 °F 90% 29.78 in 10.0 mi SSW 10.4 mph - N/A   Mostly Cloudy
5:17 PM 60.8 °F 57.2 °F 88% 29.78 in 10.0 mi SSW 15.0 mph - N/A   Overcast
5:53 PM 57.9 °F 55.9 °F 93% 29.78 in 10.0 mi SSE 6.9 mph - N/A   Mostly Cloudy
6:00 PM 57.2 °F 55.4 °F 94% 29.78 in 10.0 mi South 5.8 mph - N/A   Scattered Clouds
6:17 PM 57.2 °F 55.4 °F 94% 29.78 in 10.0 mi South 6.9 mph - N/A   Mostly Cloudy
6:53 PM 59.0 °F 55.9 °F 90% 29.78 in 10.0 mi South 6.9 mph - N/A   Mostly Cloudy
7:01 PM 60.8 °F 57.2 °F 88% 29.78 in 10.0 mi SSW 13.8 mph 19.6 mph N/A   Scattered Clouds
7:53 PM 62.1 °F 57.9 °F 86% 29.79 in 10.0 mi SSW 16.1 mph - N/A   Clear
8:53 PM 62.1 °F 59.0 °F 90% 29.80 in 10.0 mi SSW 12.7 mph - N/A   Partly Cloudy
9:16 PM 62.6 °F 59.0 °F 88% 29.80 in 10.0 mi SW 11.5 mph - N/A   Mostly Cloudy
9:53 PM 62.1 °F 59.0 °F 90% 29.80 in 10.0 mi SW 11.5 mph 17.3 mph N/A   Mostly Cloudy
10:53 PM 62.1 °F 60.1 °F 93% 29.80 in 10.0 mi SW 10.4 mph - N/A   Overcast
11:53 PM 62.1 °F 60.1 °F 93% 29.78 in 10.0 mi SW 9.2 mph - N/A   Overcast